"Pseudo-MPEC" for P11Okax

Created 2023 Dec 2 0:22:04 UT using Find_Orb

Click here for an explanation of pseudo-MPECs

 
 Astrometry: 
     P11Okax* C2023 11 18ZKHU@TAstrometrywB+n!Ir?6\V'68G'j%QB1redacted;`V7eYFF51
     P11Okax  C2023 11 18gS!HPC-yxWK=G-MOw?PY0Vd,AJcX6BYWOZYZWg3Ux^MEFtC@%VP5F51
     P11Okax  C2023 11 18A\Vclickkyh[uGmK'L+8mHku7OeojVyYw65C5$$eKK6-xuEEmm7IF51
     P11Okax  C2023 11 18B(LrmLg8(AqZWa#Fe[ej-!w_PC*Cjum3#?+qELc'G4aXu%:j+aF(F51
     P11Okax KC2023 11 21.42784 04 58 58.31 -12 12 13.8    ~BLE7 22.0 GVNEOCP291
     P11Okax KC2023 11 21.44160 04 58 55.79 -12 11 30.9    ~BLE7 21.9 GVNEOCP291
     P11Okax  C2023 11 22Fv%*tpg])`BT_H=fp,(N'F-vFR'ax/-N58_riB!)VhfM/\Y71;]7F52
     P11Okax  C2023 11 22^pEH'-QpySUqwQLo(I\02CI)^`OxLGxu)+Ly^Y//V`[]V`lNrdquF52
     P11Okax  C2023 11 22H0[J94hereva2KDqQC/1Rg9y$I=oEjY=e['!+@5\[!-%L9#[$UykF52
     P11Okax  C2023 11 22HRforJKJBto3.fRiexplanationGSuhBW#w]IW`^[o7'rj+w:MrcF52

Station data:
(291) LPL/Spacewatch II  (N31.961669 W111.599905)  US/Arizona.  Observers J.
   V. Scotti, R. S. McMillan. 1.8-m f/2.7 reflector + CCD.
(F51) Pan-STARRS 1, Haleakala  (N20.707234 W156.255910)  US/Hawaii.
   Observers J. Bulger, T. Lowe, A. Schultz, M. Willman. Measurers K.
   Chambers, S. Chastel, T. de Boer, L. Denneau, J. Fairlamb, H. Flewelling,
   M. Huber, C.-C. Lin, E. Magnier, Y. Ramanjooloo, R. Wainscoat, R. Weryk.
   1.8-m Ritchey-Chrétien + CCD.
(F52) Pan-STARRS 2, Haleakala  (N20.707382 W156.255910)  US/Hawaii.
   Observers J. Bulger, T. Dukes, T. Lowe, A. Schultz, M. Willman. Measurers
   K. Chambers, S. Chastel, T. de Boer, L. Denneau, J. Fairlamb, H.
   Flewelling, M. Huber, C.-C. Lin, E. Magnier, Y. Ramanjooloo, R. Wainscoat,
   R. Weryk. 1.8-m Ritchey-Chrétien + CCD.

Orbital elements:  P11Okax
   Perihelion 2023 Aug 26.79899 +/- 1.83 TT = 19:10:32 (JD 2460183.29899)
Epoch 2023 Nov 22.0 TT = JDT 2460270.5   Earth MOID: 0.4867   Ma: 0.0118
M  37.70151566 +/- 2.3              (J2000 ecliptic)             AutoNEOCP
n   0.43235179 +/- 0.0179           Peri.  275.65130 +/- 2.3
a   1.73211957 +/- 0.0478           Node    79.10348 +/- 0.29
e   0.2866096 +/- 0.00979           Incl.   35.06773 +/- 1.1
P   2.28/832.64d           H 21.30  G  0.15   U 10.0
q 1.23567734 +/- 0.0172    Q 2.22856179 +/- 0.0784
From 10 observations 2023 Nov. 18-22; mean residual 0".13
Residuals in arcseconds: 
231118 F51  .06+  .01+    231121 291  .13+  .03+    231122 F52  .21+  .03+    
231118 F51  .03-  .08-    231121 291  .05-  .04+    231122 F52  .17-  .12-    
231118 F51  .09-  .07+    231122 F52  .08+  .24-    
231118 F51  .06+  .01-    231122 F52  .14-  .32+    

Ephemerides (geocentric):
Date (UTC) HH   RA             Dec           delta  r     elong  mag " sig PA
---- --------  ------------   ------------  ------ ------ -----  --- --------
2023 12 02 00  04 27 23.849   -02 16 00.86  .49439 1.4514 155.9 21.5 16.1  93
2023 12 02 01  04 27 16.519   -02 13 33.13  .49447 1.4516 155.9 21.5 16.3  93
2023 12 02 02  04 27 09.191   -02 11 05.38  .49456 1.4517 156.0 21.5 16.4  93
2023 12 02 03  04 27 01.867   -02 08 37.63  .49465 1.4519 156.0 21.5 16.6  93
2023 12 02 04  04 26 54.545   -02 06 09.86  .49473 1.4520 156.0 21.5 16.8  93
2023 12 02 05  04 26 47.227   -02 03 42.09  .49482 1.4522 156.1 21.5 16.9  94
2023 12 02 06  04 26 39.911   -02 01 14.30  .49491 1.4523 156.1 21.5 17.1  94
2023 12 02 07  04 26 32.599   -01 58 46.50  .49500 1.4525 156.1 21.5 17.2  94
2023 12 02 08  04 26 25.290   -01 56 18.70  .49509 1.4527 156.2 21.5 17.4  94
2023 12 02 09  04 26 17.985   -01 53 50.88  .49518 1.4528 156.2 21.5 17.6  94
2023 12 02 10  04 26 10.682   -01 51 23.06  .49527 1.4530 156.2 21.5 17.7  94
2023 12 02 11  04 26 03.382   -01 48 55.23  .49536 1.4531 156.2 21.5 17.9  94
2023 12 02 12  04 25 56.086   -01 46 27.39  .49546 1.4533 156.3 21.5 18.1  94
2023 12 02 13  04 25 48.793   -01 43 59.55  .49555 1.4534 156.3 21.5 18.3  94
2023 12 02 14  04 25 41.504   -01 41 31.70  .49564 1.4536 156.3 21.5 18.4  94
2023 12 02 15  04 25 34.217   -01 39 03.84  .49574 1.4537 156.4 21.5 18.6  95
2023 12 02 16  04 25 26.934   -01 36 35.98  .49583 1.4539 156.4 21.5 18.8  95
2023 12 02 17  04 25 19.654   -01 34 08.12  .49593 1.4540 156.4 21.5 19.0  95
2023 12 02 18  04 25 12.378   -01 31 40.25  .49603 1.4542 156.4 21.5 19.1  95
2023 12 02 19  04 25 05.105   -01 29 12.38  .49612 1.4543 156.5 21.5 19.3  95
2023 12 02 20  04 24 57.836   -01 26 44.50  .49622 1.4545 156.5 21.5 19.5  95
2023 12 02 21  04 24 50.569   -01 24 16.62  .49632 1.4547 156.5 21.5 19.7  95
2023 12 02 22  04 24 43.307   -01 21 48.74  .49642 1.4548 156.6 21.5 19.8  95
2023 12 02 23  04 24 36.048   -01 19 20.86  .49652 1.4550 156.6 21.5 20.0  95
2023 12 03 00  04 24 28.792   -01 16 52.97  .49662 1.4551 156.6 21.5 20.2  95
2023 12 03 01  04 24 21.540   -01 14 25.09  .49672 1.4553 156.6 21.5 20.4  96
2023 12 03 02  04 24 14.291   -01 11 57.20  .49682 1.4554 156.7 21.5 20.6  96
2023 12 03 03  04 24 07.046   -01 09 29.32  .49692 1.4556 156.7 21.5 20.8  96
2023 12 03 04  04 23 59.804   -01 07 01.44  .49703 1.4557 156.7 21.5 20.9  96
2023 12 03 05  04 23 52.566   -01 04 33.56  .49713 1.4559 156.8 21.5 21.1  96
2023 12 03 06  04 23 45.332   -01 02 05.68  .49723 1.4560 156.8 21.5 21.3  96
2023 12 03 07  04 23 38.101   -00 59 37.80  .49734 1.4562 156.8 21.5 21.5  96
2023 12 03 08  04 23 30.874   -00 57 09.92  .49744 1.4564 156.8 21.5 21.7  96
2023 12 03 09  04 23 23.651   -00 54 42.05  .49755 1.4565 156.9 21.5 21.9  96
2023 12 03 10  04 23 16.431   -00 52 14.18  .49766 1.4567 156.9 21.5 22.1  96
2023 12 03 11  04 23 09.215   -00 49 46.32  .49776 1.4568 156.9 21.5 22.3  96
2023 12 03 12  04 23 02.003   -00 47 18.46  .49787 1.4570 156.9 21.5 22.5  97
2023 12 03 13  04 22 54.794   -00 44 50.61  .49798 1.4571 157.0 21.5 22.7  97
2023 12 03 14  04 22 47.590   -00 42 22.76  .49809 1.4573 157.0 21.5 22.9  97
2023 12 03 15  04 22 40.389   -00 39 54.92  .49820 1.4574 157.0 21.5 23.1  97
2023 12 03 16  04 22 33.192   -00 37 27.09  .49831 1.4576 157.0 21.5 23.3  97
2023 12 03 17  04 22 25.999   -00 34 59.26  .49842 1.4577 157.0 21.5 23.5  97
2023 12 03 18  04 22 18.809   -00 32 31.44  .49853 1.4579 157.1 21.5 23.7  97
2023 12 03 19  04 22 11.624   -00 30 03.63  .49865 1.4580 157.1 21.5 23.9  97
2023 12 03 20  04 22 04.442   -00 27 35.83  .49876 1.4582 157.1 21.5 24.1  97
2023 12 03 21  04 21 57.265   -00 25 08.03  .49887 1.4584 157.1 21.5 24.3  97
2023 12 03 22  04 21 50.091   -00 22 40.25  .49899 1.4585 157.2 21.5 24.5  97
2023 12 03 23  04 21 42.922   -00 20 12.48  .49910 1.4587 157.2 21.5 24.7  97